Weather History for Courtland, AL

Change the Weather History Date:

Monday, April 15, 2013

  Actual Average (KMSL) Record (KMSL)
Temperature  
Mean Temperature 62 °F 61 °F  
Max Temperature 75 °F 73 °F 89 °F (2006)
Min Temperature 48 °F 49 °F 30 °F (1943)
Degree Days  
Heating Degree Days 4 5  
Month to date heating degree days 104  
Since 1 July heating degree days 3017  
Cooling Degree Days 0 2  
Month to date cooling degree days 18  
Year to date cooling degree days 31  
Growing Degree Days 12 (Base 50)    
Moisture  
Dew Point 55 °F    
Average Humidity 77    
Maximum Humidity 100    
Minimum Humidity 53    
Precipitation  
Precipitation 0.00 in 0.14 in 3.07 in (2011)
Month to date precipitation 2.19  
Year to date precipitation 16.22  
Snow  
Snow 0.00 in - - ()
Month to date snowfall  
Since 1 July snowfall  
Snow Depth -    
Sea Level Pressure  
Sea Level Pressure 29.99 in    
Wind  
Wind Speed 5 mph (SSE)    
Max Wind Speed 13 mph    
Max Gust Speed 16 mph    
Visibility 10 miles    
Events      
T = Trace of Precipitation, MM = Missing Value Source: NWS Daily Summary

Daily Weather History Graph

Daily Weather History Graph

Search for Another Location

Airport:

Trip Planner

Search our weather history database for the weather conditions in past years. The results will help you decide how hot, cold, wet, or windy it might be!

Date:

Astronomy

Apr. 15, 2013 Rise Set
Actual Time 6:17 AM CDT 7:21 PM CDT
Civil Twilight 5:51 AM CDT 7:47 PM CDT
Nautical Twilight 5:20 AM CDT 8:18 PM CDT
Astronomical Twilight 4:48 AM CDT 8:50 PM CDT
Moon 9:50 AM CDT No Moon Set
Length of Visible Light 13h 56m
Length of Day
13h 04m
Waxing Crescent, 25% of the Moon is Illuminated
Apr 15
Waxing Crescent
Apr 18
First Quarter
Apr 25
Full
May 2
Last Quarter
May 9
New

Hourly Weather History & Observations

Time (CDT) Temp. Dew Point Humidity Pressure Visibility Wind Dir Wind Speed Gust Speed Precip Events Conditions
12:15 AM 57.2 °F 51.8 °F 82% 29.91 in 10.0 mi SE 4.6 mph - N/A   Overcast
12:35 AM 57.2 °F 51.8 °F 82% 29.91 in 10.0 mi SE 4.6 mph - N/A   Overcast
12:55 AM 57.2 °F 51.8 °F 82% 29.91 in 10.0 mi SE 5.8 mph - N/A   Overcast
1:15 AM 55.4 °F 51.8 °F 88% 29.91 in 10.0 mi SE 4.6 mph - N/A   Overcast
1:35 AM 55.4 °F 51.8 °F 88% 29.91 in 10.0 mi SE 5.8 mph - N/A   Overcast
1:55 AM 55.4 °F 51.8 °F 88% 29.91 in 10.0 mi SE 5.8 mph - N/A   Overcast
2:15 AM 55.4 °F 51.8 °F 88% 29.91 in 10.0 mi SSE 3.5 mph - N/A   Overcast
2:35 AM 55.4 °F 51.8 °F 88% 29.91 in 10.0 mi ESE 5.8 mph - N/A   Overcast
2:55 AM 53.6 °F 51.8 °F 94% 29.91 in 10.0 mi SSE 4.6 mph - N/A   Overcast
3:15 AM 53.6 °F 53.6 °F 100% 29.91 in 10.0 mi SE 3.5 mph - N/A   Mostly Cloudy
3:35 AM 53.6 °F 51.8 °F 94% 29.92 in 10.0 mi ESE 4.6 mph - N/A   Scattered Clouds
3:55 AM 51.8 °F 51.8 °F 100% 29.92 in 10.0 mi East 3.5 mph - N/A   Clear
4:15 AM 51.8 °F 50.0 °F 94% 29.93 in 10.0 mi Calm Calm - N/A   Scattered Clouds
4:35 AM 50.0 °F 50.0 °F 100% 29.94 in 10.0 mi Calm Calm - N/A   Scattered Clouds
4:55 AM 50.0 °F 50.0 °F 100% 29.94 in 10.0 mi Calm Calm - N/A   Clear
5:15 AM 48.2 °F 48.2 °F 100% 29.95 in 7.0 mi Calm Calm - N/A   Scattered Clouds
5:35 AM 50.0 °F 50.0 °F 100% 29.95 in 10.0 mi Calm Calm - N/A   Mostly Cloudy
5:55 AM 50.0 °F 50.0 °F 100% 29.96 in 10.0 mi Calm Calm - N/A   Overcast
6:15 AM 51.8 °F 51.8 °F 100% 29.97 in 10.0 mi Calm Calm - N/A   Overcast
6:35 AM 51.8 °F 51.8 °F 100% 29.98 in 10.0 mi Calm Calm - N/A   Overcast
6:55 AM 53.6 °F 53.6 °F 100% 29.98 in 10.0 mi East 4.6 mph - N/A   Overcast
7:15 AM 53.6 °F 53.6 °F 100% 29.99 in 10.0 mi Calm Calm - N/A   Overcast
7:35 AM 55.4 °F 55.4 °F 100% 30.00 in 10.0 mi Calm Calm - N/A   Overcast
7:55 AM 55.4 °F 55.4 °F 100% 30.01 in 10.0 mi Calm Calm - N/A   Overcast
8:15 AM 59.0 °F 55.4 °F 88% 30.02 in 10.0 mi South 5.8 mph - N/A   Scattered Clouds
8:35 AM 60.8 °F 55.4 °F 82% 30.01 in 10.0 mi SSE 9.2 mph - N/A   Scattered Clouds
8:55 AM 60.8 °F 55.4 °F 82% 30.02 in 10.0 mi South 5.8 mph - N/A   Scattered Clouds
9:15 AM 60.8 °F 57.2 °F 88% 30.03 in 10.0 mi South 10.4 mph - N/A   Overcast
9:35 AM 60.8 °F 57.2 °F 88% 30.03 in 10.0 mi South 9.2 mph - N/A   Mostly Cloudy
9:55 AM 62.6 °F 55.4 °F 77% 30.03 in 10.0 mi South 5.8 mph - N/A   Scattered Clouds
10:15 AM 62.6 °F 55.4 °F 77% 30.03 in 10.0 mi SSW 8.1 mph - N/A   Scattered Clouds
10:35 AM 62.6 °F 55.4 °F 77% 30.03 in 10.0 mi SSW 5.8 mph - N/A   Scattered Clouds
10:55 AM 64.4 °F 55.4 °F 73% 30.03 in 10.0 mi SSW 6.9 mph - N/A   Clear
11:15 AM 68.0 °F 55.4 °F 64% 30.03 in 10.0 mi South 6.9 mph - N/A   Clear
11:35 AM 68.0 °F 55.4 °F 64% 30.03 in 10.0 mi SW 6.9 mph - N/A   Clear
11:55 AM 69.8 °F 55.4 °F 60% 30.03 in 10.0 mi SSW 6.9 mph - N/A   Clear
12:15 PM 69.8 °F 57.2 °F 64% 30.01 in 10.0 mi South 3.5 mph - N/A   Clear
12:35 PM 71.6 °F 55.4 °F 57% 30.01 in 10.0 mi SE 8.1 mph - N/A   Clear
12:55 PM 71.6 °F 55.4 °F 57% 30.00 in 10.0 mi SE 5.8 mph - N/A   Scattered Clouds
1:15 PM 73.4 °F 55.4 °F 53% 30.00 in 10.0 mi ESE 8.1 mph - N/A   Mostly Cloudy
1:35 PM 73.4 °F 55.4 °F 53% 30.00 in 10.0 mi South 8.1 mph - N/A   Scattered Clouds
1:55 PM 73.4 °F 57.2 °F 57% 29.99 in 10.0 mi South 8.1 mph - N/A   Clear
2:15 PM 75.2 °F 59.0 °F 57% 29.99 in 10.0 mi SSW 9.2 mph 16.1 mph N/A   Clear
2:35 PM 75.2 °F 59.0 °F 57% 29.98 in 10.0 mi South 11.5 mph - N/A   Clear
2:55 PM 75.2 °F 59.0 °F 57% 29.98 in 10.0 mi South 8.1 mph - N/A   Clear
3:15 PM 75.2 °F 59.0 °F 57% 29.97 in 10.0 mi South 11.5 mph - N/A   Clear
3:35 PM 75.2 °F 59.0 °F 57% 29.97 in 10.0 mi South 12.7 mph - N/A   Clear
3:55 PM 75.2 °F 59.0 °F 57% 29.97 in 10.0 mi South 6.9 mph - N/A   Clear
4:15 PM 75.2 °F 59.0 °F 57% 29.97 in 10.0 mi South 8.1 mph - N/A   Clear
4:35 PM 73.4 °F 59.0 °F 61% 29.97 in 10.0 mi SE 9.2 mph - N/A   Clear
4:55 PM 73.4 °F 59.0 °F 61% 29.97 in 10.0 mi South 5.8 mph - N/A   Clear
5:15 PM 73.4 °F 59.0 °F 61% 29.98 in 10.0 mi South 8.1 mph - N/A   Clear
5:35 PM 73.4 °F 59.0 °F 61% 29.98 in 10.0 mi South 10.4 mph - N/A   Clear
5:55 PM 71.6 °F 57.2 °F 60% 29.98 in 10.0 mi SSE 8.1 mph - N/A   Clear
6:15 PM 71.6 °F 57.2 °F 60% 29.98 in 10.0 mi SSE 11.5 mph - N/A   Clear
6:35 PM 71.6 °F 57.2 °F 60% 29.98 in 10.0 mi SSE 11.5 mph - N/A   Clear
6:55 PM 71.6 °F 57.2 °F 60% 29.98 in 10.0 mi SSE 10.4 mph - N/A   Clear
7:15 PM 69.8 °F 57.2 °F 64% 29.99 in 10.0 mi SSE 8.1 mph - N/A   Clear
7:35 PM 68.0 °F 57.2 °F 68% 30.00 in 10.0 mi SSE 8.1 mph - N/A   Clear
7:55 PM 66.2 °F 57.2 °F 73% 30.01 in 10.0 mi SSE 6.9 mph - N/A   Clear
8:15 PM 68.0 °F 57.2 °F 68% 30.01 in 10.0 mi SSE 6.9 mph - N/A   Clear
8:35 PM 66.2 °F 57.2 °F 73% 30.03 in 10.0 mi SSE 8.1 mph - N/A   Clear
8:55 PM 64.4 °F 57.2 °F 77% 30.03 in 7.0 mi SSE 6.9 mph - N/A   Clear
9:15 PM 64.4 °F 57.2 °F 77% 30.04 in 10.0 mi SE 8.1 mph - N/A   Clear
9:35 PM 64.4 °F 57.2 °F 77% 30.04 in 7.0 mi SE 8.1 mph - N/A   Clear
9:55 PM 64.4 °F 57.2 °F 77% 30.05 in 10.0 mi SE 8.1 mph - N/A   Clear
10:15 PM 64.4 °F 57.2 °F 77% 30.05 in 10.0 mi SE 8.1 mph - N/A   Clear
10:35 PM 62.6 °F 57.2 °F 82% 30.05 in 10.0 mi SSE 8.1 mph - N/A   Clear
10:55 PM 62.6 °F 57.2 °F 82% 30.05 in 10.0 mi SSE 5.8 mph - N/A   Clear
11:15 PM 62.6 °F 57.2 °F 82% 30.05 in 10.0 mi SE 5.8 mph - N/A   Clear
11:35 PM 62.6 °F 57.2 °F 82% 30.05 in 10.0 mi SE 5.8 mph - N/A   Clear
11:55 PM 62.6 °F 57.2 °F 82% 30.05 in 10.0 mi SE 5.8 mph - N/A   Clear